Location: Home
(42.5358°N, 72.7383°W)
Time: 17:27:26
(UTC-05:00)

Tiros 1 - Pass Details

Date: 30 November 2021
Orbit: 629 x 664 km, 48.4° (Epoch: 18 January)

Event Time Altitude Azimuth Distance (km) Brightness Sun altitude
Rises 00:59:50 0° 296° (WNW) 2,968 - -63.2°
Reaches altitude 10° 01:02:10 10° 297° (WNW) 2,060 - -62.9°
Maximum altitude 01:06:57 87° 27° (NNE) 662 - -62.3°
Drops below altitude 10° 01:11:44 10° 116° (ESE) 2,071 - -61.6°
Sets 01:14:05 0° 117° (ESE) 2,984 - -61.3°
